Hauptseite
METAR-TAF:

METAR-TAF

Flughäfen :

City-Airport Mannheim

Mannheim, Deutschland

Breite: 49-28-21N, Länge: 008-30-56E, Höhe: 100 m

Beobachtung

Neuester Wetterbericht von vor 31 Stunden und 40 Minuten, um 15:50 UTC
Wind 4 kt aus Nord/Nordwest, variierte zwischen West/Nordwest und Nord
Temperatur 29°C
Luftfeuchtigkeit 37%
Luftdruck 1014 hPa
Sichtweite 10 km oder mehr
Leicht bewölkt in der Höhe von 3600 ft

METAR: EDFM 171550Z 33004KT 300V010 9999 FEW036 29/13 Q1014

Zeit: 01:30 (23:30 UTC)

Prognose

Neuester Wetterbericht von vor 30 Stunden und 30 Minuten, um 17:00 UTC
Gültige Prognose vom 20 um 18 UTC bis 20 um 21 UTC
Wind 4 kt aus Nord/Nordwest
Sichtweite 10 km oder mehr
keine Wolken unter 1500 m und keine Kumulonimbus oder Gewitterwolken

TAF: EDFM 201700Z 2018/2021 33004KT CAVOK

Wetterbeobachtungen und Prognosen von mehr als 4000 Flughäfen (METAR und TAF Bericht).

Die verfügbaren Stationen werden durch gelbe und rote Markierungen auf der Karte dargestellt.

Führen Sie die Maus auf sie, um den Namen der Station zu sehen.

Darauf klicken, um die Beobachtung von Wetterbeobachtungen und Prognosen zu sehen.

Um die Karte zu ändern : klicken Sie auf den grünen Tasten mit einem schwarzen Kreuz Zum Vergrößern, auf den grünen Button mit einem Gedankenstrich zu verkleinern, oder auf die grünen Pfeile für benachbarte Karten.


METAR-TAF: